Location: Westminster
(33.3626°N, 96.4619°W)
Time: 21:15:16
(UTC+00:00)

Cosmos 1503 Rocket - Pass Details

Date: 03 December 2021
Orbit: 752 x 791 km, 74.0° (Epoch: 26 January)

Event Time Altitude Azimuth Distance (km) Brightness Sun altitude
Rises 12:15:24 0° 213° (SSW) 3,212 7.1 -12.0°
Reaches altitude 10° 12:17:52 10° 221° (SW) 2,296 6.3 -11.6°
Maximum altitude 12:22:47 41° 291° (WNW) 1,103 4.4 -10.6°
Drops below altitude 10° 12:27:47 10° 2° (N) 2,333 6.3 -9.6°
Sets 12:30:19 0° 9° (N) 3,270 7.1 -9.1°
